ATLAS 5 CENTAUR DEB, 46862

Orbit data source: Space-Track

ATLAS 5 CENTAUR DEB, 46862 is space debris in HEO originally from a launch on Wed, 17 Oct 2018 UTC launched from the Air Force Eastern Test Range (AFETR). Debris objects in space refer to the collection of defunct objects orbiting the Earth. Examples of debris include non-operational satellites, rocket bodies, and fragments generated from explosions, collisions, or faulty payload assembly.

Loading next visibility...
ATLAS 5 CENTAUR DEB details
Identifier
46862, 2018-079DT
Orbit
HEO
Last TLE update5 months ago
Origin
Flag of USULA (US)
ManufacturerULA Decatur
MissionSpacecraft
Bus & MotorUnknown
MassUnknown
Launch date (UTC)
2018-10-17 (6 years ago)
Launch vehicleUnknown
Launch site
Air Force Eastern Test Range (AFETR)
Object type
Payload
Rocket body
Debris
Shape & HBRUnknown
Radar Cross SectionRCS unknown

Expand to show TLE details & history

TLE from 5 months ago
0 ATLAS 5 CENTAUR DEB
1 46862U 18079DT  24195.47924339 -.00000053  00000-0  00000-0 0  9992
2 46862  11.0677 129.2711 5109835 107.6729 312.4559  1.50438403 20320
Epoch: 2024-07-13T11:30Z
Definitive object data (Epoch: 2024-07-13T11:30:06.628Z)
Latitude0.00001°
Longitude24.73037°
Altitude21,843.887 km
Speed3.982 km/s
True Right ascension08h 36m 23s
True Declination0° 00' 00"
Sunlit
Object was in daylight at TLE epoch
Visualization TLE readout
Latitude-10.99216°
Longitude-63.59566°
Altitude37,553.315 km
Speed2.4 km/s
Apparent Right ascension03h 07m 38s
Apparent Declination-16° 47' 24"
Sunlit
Object is in daylight
Visualization observer readout
Local Sidereal Time22:26:26
Azimuth115.434° SE
Elevation3.564°
Doppler factor1
Orbital elements
Apogee altitude42,238.342 km
Perigee altitude9,356.158 km
Semi-major axis32,175.387 km
Eccentricity0.5109835
Inclination11.0677°
RAAN129.2711°
Arg. of periapsis107.6729°
True anomaly252.17478°
Mean anomaly312.4559°
Eccentric anomaly284.0552°
Mean motion0.37606 °/min
BSTARUnknown
Orbital period957.29 mins
Loading maneuver chart data...

ATLAS 5 CENTAUR DEB Visibility forecast

Observer location: undefined°, undefined

Span
Click to sort rows by Start time (UTC) header in descending order
Start Az.
Max El. time (UTC)
Max El. Az.
Max El.
End time (UTC)
End Az.
519 mins2024-12-27 00:28:11.308Z120.352° SE2024-12-27 07:09:11.308Z142.442° SSE30.686°2024-12-27 09:07:11.308Z101.575° ESE
|